WLF88S FGSL-FKYS

Flight info

Callsign WLF88S
Flight time 1h 3m
Altitude 5500
Route MBO DCT DLA DCT NLY
Aircraft AEST/L-SDFGRY/S

Departure

Time 2026-05-05 21:54
Airport Malabo International Airport (FGSL)

Arrival

Time 2026-05-05 22:57
Airport Yaoundé Nsimalen International Airport (FKYS)
Time Latitude Longitude Altitude Speed Heading
2026-05-05 21:36 3.76197 8.71953 65 ft 0 kts 127°
2026-05-05 21:51 3.76193 8.71940 59 ft 9 kts 314°
2026-05-05 21:51 3.76278 8.71891 63 ft 15 kts 321°
2026-05-05 21:52 3.76421 8.71880 63 ft 13 kts 341°
2026-05-05 21:52 3.76471 8.71832 62 ft 0 kts 311°
2026-05-05 21:53 3.76472 8.71831 57 ft 3 kts 311°
2026-05-05 21:53 3.76488 8.71756 59 ft 18 kts 269°
2026-05-05 21:53 3.76403 8.71648 60 ft 49 kts 221°
2026-05-05 21:53 3.75964 8.71258 76 ft 107 kts 221°
2026-05-05 21:54 3.75368 8.70765 396 ft 115 kts 218°
2026-05-05 21:54 3.74749 8.70158 762 ft 143 kts 226°
2026-05-05 21:54 3.74015 8.69385 1079 ft 157 kts 227°
2026-05-05 21:54 3.73450 8.68462 1527 ft 163 kts 257°
2026-05-05 21:55 3.73537 8.67304 1879 ft 170 kts 287°
2026-05-05 21:55 3.74188 8.66255 2049 ft 193 kts 315°
2026-05-05 21:55 3.75414 8.65599 2127 ft 211 kts 345°
2026-05-05 21:55 3.76901 8.65463 2248 ft 220 kts 358°
2026-05-05 21:56 3.78443 8.65443 2347 ft 222 kts 359°
2026-05-05 21:56 3.79978 8.65524 2449 ft 223 kts 13°
2026-05-05 21:56 3.81363 8.66225 2530 ft 226 kts 41°
2026-05-05 21:56 3.82299 8.67472 2652 ft 224 kts 67°
2026-05-05 21:57 3.82829 8.68928 2776 ft 223 kts 73°
2026-05-05 21:57 3.83034 8.70443 2902 ft 219 kts 98°
2026-05-05 21:57 3.82585 8.71878 3020 ft 215 kts 116°
2026-05-05 21:57 3.81920 8.73233 3079 ft 218 kts 118°
2026-05-05 21:58 3.81215 8.74583 3164 ft 219 kts 118°
2026-05-05 21:58 3.80504 8.75925 3248 ft 218 kts 118°
2026-05-05 21:58 3.79788 8.77269 3339 ft 218 kts 118°
2026-05-05 21:58 3.79086 8.78612 3427 ft 218 kts 113°
2026-05-05 21:59 3.78806 8.80084 3546 ft 216 kts 91°
2026-05-05 21:59 3.79010 8.81566 3651 ft 215 kts 70°
2026-05-05 21:59 3.79772 8.82837 3807 ft 214 kts 56°
2026-05-05 21:59 3.80420 8.84161 3980 ft 211 kts 73°
2026-05-05 22:00 3.80767 8.85580 4123 ft 210 kts 78°
2026-05-05 22:00 3.81101 8.87007 4227 ft 211 kts 77°
2026-05-05 22:00 3.81458 8.88436 4346 ft 211 kts 76°
2026-05-05 22:00 3.81848 8.89852 4458 ft 211 kts 75°
2026-05-05 22:01 3.82258 8.91267 4576 ft 211 kts 74°
2026-05-05 22:01 3.82676 8.92677 4687 ft 211 kts 74°
2026-05-05 22:01 3.83101 8.94083 4793 ft 211 kts 74°
2026-05-05 22:01 3.83526 8.95488 4894 ft 211 kts 74°
2026-05-05 22:02 3.83942 8.96874 4975 ft 211 kts 74°
2026-05-05 22:02 3.84358 8.98285 5027 ft 213 kts 74°
2026-05-05 22:02 3.84775 8.99720 5009 ft 215 kts 75°
2026-05-05 22:02 3.85183 9.01139 4984 ft 205 kts 75°
2026-05-05 22:03 3.85564 9.02472 4986 ft 194 kts 75°
2026-05-05 22:03 3.85926 9.03743 5004 ft 186 kts 75°
2026-05-05 22:03 3.86277 9.04975 4990 ft 182 kts 75°
2026-05-05 22:03 3.86621 9.06184 4999 ft 179 kts 75°
2026-05-05 22:04 3.86955 9.07360 4999 ft 172 kts 75°
2026-05-05 22:04 3.87285 9.08520 5013 ft 178 kts 75°
2026-05-05 22:04 3.87630 9.09742 4993 ft 187 kts 75°
2026-05-05 22:04 3.87983 9.11018 4994 ft 193 kts 75°
2026-05-05 22:05 3.88345 9.12320 4984 ft 196 kts 75°
2026-05-05 22:05 3.88715 9.13645 4981 ft 198 kts 75°
2026-05-05 22:05 3.89090 9.14983 4995 ft 200 kts 74°
2026-05-05 22:05 3.89473 9.16322 4994 ft 200 kts 74°
2026-05-05 22:06 3.89861 9.17665 4990 ft 201 kts 74°
2026-05-05 22:06 3.90252 9.19010 4992 ft 202 kts 74°
2026-05-05 22:06 3.90644 9.20362 4992 ft 202 kts 74°
2026-05-05 22:06 3.91037 9.21713 4991 ft 202 kts 74°
2026-05-05 22:07 3.91429 9.23063 4988 ft 202 kts 74°
2026-05-05 22:07 3.91824 9.24416 4999 ft 203 kts 74°
2026-05-05 22:07 3.92215 9.25756 4995 ft 203 kts 74°
2026-05-05 22:07 3.92607 9.27108 4988 ft 203 kts 74°
2026-05-05 22:08 3.93001 9.28461 4990 ft 202 kts 74°
2026-05-05 22:08 3.93391 9.29810 5003 ft 202 kts 74°
2026-05-05 22:08 3.93779 9.31166 5008 ft 202 kts 74°
2026-05-05 22:08 3.94165 9.32516 4991 ft 202 kts 74°
2026-05-05 22:09 3.94554 9.33871 4989 ft 203 kts 74°
2026-05-05 22:09 3.94944 9.35226 4991 ft 203 kts 74°
2026-05-05 22:09 3.95333 9.36587 4999 ft 203 kts 74°
2026-05-05 22:09 3.95720 9.37943 4994 ft 202 kts 74°
2026-05-05 22:10 3.96104 9.39298 4985 ft 203 kts 75°
2026-05-05 22:10 3.96486 9.40655 4986 ft 203 kts 75°
2026-05-05 22:10 3.96857 9.42016 4985 ft 202 kts 75°
2026-05-05 22:10 3.97219 9.43377 4981 ft 202 kts 75°
2026-05-05 22:11 3.97581 9.44732 4990 ft 202 kts 75°
2026-05-05 22:11 3.97951 9.46093 4982 ft 203 kts 75°
2026-05-05 22:11 3.98327 9.47460 4988 ft 204 kts 75°
2026-05-05 22:11 3.98706 9.48831 4989 ft 204 kts 75°
2026-05-05 22:12 3.98876 9.50242 4986 ft 204 kts 91°
2026-05-05 22:12 3.98810 9.51662 4974 ft 205 kts 92°
2026-05-05 22:12 3.98772 9.53089 4981 ft 204 kts 91°
2026-05-05 22:12 3.98733 9.54510 4978 ft 204 kts 91°
2026-05-05 22:13 3.98687 9.55927 4982 ft 204 kts 91°
2026-05-05 22:13 3.98651 9.57349 4979 ft 204 kts 91°
2026-05-05 22:13 3.98644 9.58774 4972 ft 205 kts 90°
2026-05-05 22:13 3.98648 9.60195 4982 ft 204 kts 90°
2026-05-05 22:14 3.98651 9.61616 4975 ft 204 kts 90°
2026-05-05 22:14 3.98656 9.63036 4976 ft 204 kts 90°
2026-05-05 22:14 3.98662 9.64465 4975 ft 205 kts 89°
2026-05-05 22:14 3.98666 9.65888 4977 ft 204 kts 90°
2026-05-05 22:15 3.98670 9.67309 4977 ft 204 kts 90°
2026-05-05 22:15 3.98755 9.68722 4980 ft 204 kts 75°
2026-05-05 22:15 3.99396 9.69975 4971 ft 205 kts 56°
2026-05-05 22:15 3.99972 9.71265 4980 ft 204 kts 79°
2026-05-05 22:16 3.99935 9.72667 4983 ft 203 kts 106°
2026-05-05 22:16 3.99314 9.73937 4970 ft 205 kts 111°
2026-05-05 22:16 3.99078 9.75331 4978 ft 204 kts 85°
2026-05-05 22:16 3.99160 9.76743 4976 ft 204 kts 92°
2026-05-05 22:17 3.98947 9.78146 4977 ft 204 kts 104°
2026-05-05 22:17 3.98548 9.79506 4980 ft 204 kts 103°
2026-05-05 22:17 3.98333 9.80910 4982 ft 204 kts 97°
2026-05-05 22:17 3.98137 9.82322 4987 ft 205 kts 98°
2026-05-05 22:18 3.97922 9.83733 4982 ft 205 kts 99°
2026-05-05 22:18 3.97695 9.85150 4978 ft 206 kts 99°
2026-05-05 22:18 3.97472 9.86548 4979 ft 206 kts 99°
2026-05-05 22:18 3.97240 9.87981 4980 ft 206 kts 99°
2026-05-05 22:19 3.97012 9.89398 4973 ft 206 kts 99°
2026-05-05 22:19 3.96785 9.90818 4983 ft 206 kts 99°
2026-05-05 22:19 3.96562 9.92215 4980 ft 206 kts 99°
2026-05-05 22:19 3.96337 9.93631 4982 ft 206 kts 99°
2026-05-05 22:20 3.96112 9.95049 4980 ft 206 kts 98°
2026-05-05 22:20 3.95889 9.96466 4980 ft 206 kts 98°
2026-05-05 22:20 3.95665 9.97885 4983 ft 206 kts 98°
2026-05-05 22:20 3.95441 9.99305 4988 ft 206 kts 98°
2026-05-05 22:21 3.95217 10.00724 4986 ft 207 kts 98°
2026-05-05 22:21 3.94993 10.02144 4985 ft 206 kts 98°
2026-05-05 22:21 3.94769 10.03566 4990 ft 206 kts 98°
2026-05-05 22:21 3.94544 10.04984 4986 ft 206 kts 99°
2026-05-05 22:22 3.94319 10.06405 4991 ft 207 kts 99°
2026-05-05 22:22 3.94094 10.07825 4992 ft 207 kts 99°
2026-05-05 22:22 3.93868 10.09244 4990 ft 206 kts 99°
2026-05-05 22:22 3.93642 10.10665 4991 ft 206 kts 99°
2026-05-05 22:23 3.93416 10.12083 4993 ft 207 kts 98°
2026-05-05 22:23 3.93191 10.13504 4997 ft 206 kts 99°
2026-05-05 22:23 3.92966 10.14923 4997 ft 206 kts 99°
2026-05-05 22:23 3.92742 10.16343 4994 ft 206 kts 98°
2026-05-05 22:24 3.92519 10.17762 4998 ft 206 kts 98°
2026-05-05 22:24 3.92295 10.19179 5003 ft 206 kts 99°
2026-05-05 22:24 3.92071 10.20598 4999 ft 206 kts 99°
2026-05-05 22:24 3.91847 10.22018 5002 ft 207 kts 99°
2026-05-05 22:25 3.91622 10.23439 4996 ft 207 kts 98°
2026-05-05 22:25 3.91397 10.24860 4996 ft 207 kts 99°
2026-05-05 22:25 3.91248 10.25801 4996 ft 207 kts 99°
2026-05-05 22:25 3.91023 10.27218 4995 ft 206 kts 99°
2026-05-05 22:26 3.90798 10.28639 5001 ft 207 kts 99°
2026-05-05 22:26 3.90573 10.30059 5005 ft 207 kts 98°
2026-05-05 22:26 3.90348 10.31484 5013 ft 206 kts 99°
2026-05-05 22:26 3.90124 10.32903 5004 ft 206 kts 99°
2026-05-05 22:27 3.89898 10.34323 4999 ft 207 kts 99°
2026-05-05 22:27 3.89672 10.35742 5006 ft 207 kts 98°
2026-05-05 22:27 3.89447 10.37167 5002 ft 207 kts 98°
2026-05-05 22:27 3.89222 10.38589 5002 ft 207 kts 99°
2026-05-05 22:28 3.88996 10.40012 5006 ft 207 kts 99°
2026-05-05 22:28 3.88771 10.41433 4999 ft 207 kts 99°
2026-05-05 22:28 3.88547 10.42854 5016 ft 207 kts 98°
2026-05-05 22:28 3.88321 10.44276 5020 ft 207 kts 99°
2026-05-05 22:29 3.88096 10.45696 5013 ft 207 kts 99°
2026-05-05 22:29 3.87869 10.47122 5013 ft 207 kts 98°
2026-05-05 22:29 3.87644 10.48544 5017 ft 207 kts 99°
2026-05-05 22:29 3.87419 10.49964 5011 ft 207 kts 99°
2026-05-05 22:30 3.87194 10.51386 5010 ft 207 kts 98°
2026-05-05 22:30 3.86969 10.52807 5014 ft 207 kts 99°
2026-05-05 22:30 3.86743 10.54229 5013 ft 207 kts 99°
2026-05-05 22:30 3.86518 10.55649 5016 ft 206 kts 99°
2026-05-05 22:31 3.86293 10.57068 5015 ft 207 kts 99°
2026-05-05 22:31 3.86067 10.58486 5025 ft 206 kts 98°
2026-05-05 22:31 3.85839 10.59903 5023 ft 206 kts 98°
2026-05-05 22:31 3.85613 10.61316 5029 ft 205 kts 98°
2026-05-05 22:32 3.85387 10.62724 5021 ft 204 kts 98°
2026-05-05 22:32 3.85160 10.64134 5022 ft 205 kts 98°
2026-05-05 22:32 3.84937 10.65544 5026 ft 206 kts 98°
2026-05-05 22:32 3.84714 10.66960 5022 ft 206 kts 98°
2026-05-05 22:33 3.84490 10.68376 5030 ft 206 kts 98°
2026-05-05 22:33 3.84268 10.69770 5024 ft 205 kts 98°
2026-05-05 22:33 3.84044 10.71182 5027 ft 206 kts 98°
2026-05-05 22:33 3.83822 10.72596 5033 ft 206 kts 98°
2026-05-05 22:34 3.83600 10.74032 5035 ft 206 kts 98°
2026-05-05 22:34 3.83382 10.75427 5039 ft 206 kts 98°
2026-05-05 22:34 3.83162 10.76836 5033 ft 205 kts 98°
2026-05-05 22:34 3.82942 10.78248 5034 ft 205 kts 98°
2026-05-05 22:35 3.82721 10.79661 5041 ft 206 kts 98°
2026-05-05 22:35 3.82499 10.81076 5035 ft 206 kts 98°
2026-05-05 22:35 3.82276 10.82488 5035 ft 206 kts 98°
2026-05-05 22:35 3.82052 10.83901 5034 ft 205 kts 98°
2026-05-05 22:36 3.81829 10.85310 5032 ft 205 kts 98°
2026-05-05 22:36 3.81608 10.86724 5031 ft 206 kts 98°
2026-05-05 22:36 3.81386 10.88140 5048 ft 205 kts 98°
2026-05-05 22:36 3.81164 10.89552 5055 ft 206 kts 98°
2026-05-05 22:37 3.80940 10.90964 5049 ft 205 kts 98°
2026-05-05 22:37 3.80715 10.92379 5052 ft 206 kts 98°
2026-05-05 22:37 3.80491 10.93793 5051 ft 206 kts 98°
2026-05-05 22:37 3.80266 10.95210 5050 ft 206 kts 98°
2026-05-05 22:38 3.80041 10.96622 5052 ft 205 kts 98°
2026-05-05 22:38 3.79814 10.98031 5050 ft 205 kts 98°
2026-05-05 22:38 3.79588 10.99442 5051 ft 205 kts 98°
2026-05-05 22:38 3.79363 11.00855 5058 ft 206 kts 98°
2026-05-05 22:39 3.79139 11.02266 5057 ft 205 kts 98°
2026-05-05 22:39 3.78913 11.03681 5055 ft 206 kts 98°
2026-05-05 22:39 3.78687 11.05093 5060 ft 205 kts 98°
2026-05-05 22:39 3.78461 11.06507 5055 ft 205 kts 98°
2026-05-05 22:40 3.78236 11.07922 5057 ft 206 kts 98°
2026-05-05 22:40 3.78013 11.09335 5060 ft 206 kts 98°
2026-05-05 22:40 3.77788 11.10750 5054 ft 206 kts 98°
2026-05-05 22:40 3.77564 11.12158 5062 ft 205 kts 98°
2026-05-05 22:41 3.77349 11.13575 5061 ft 205 kts 98°
2026-05-05 22:41 3.77139 11.14992 5054 ft 206 kts 98°
2026-05-05 22:41 3.76913 11.16408 5054 ft 206 kts 99°
2026-05-05 22:41 3.76681 11.17822 5054 ft 206 kts 99°
2026-05-05 22:42 3.76450 11.19235 5053 ft 206 kts 98°
2026-05-05 22:42 3.76226 11.20650 5063 ft 205 kts 98°
2026-05-05 22:42 3.76017 11.22067 5055 ft 206 kts 98°
2026-05-05 22:42 3.75809 11.23485 5058 ft 205 kts 98°
2026-05-05 22:43 3.75606 11.24870 5045 ft 197 kts 98°
2026-05-05 22:43 3.75411 11.26206 5054 ft 192 kts 98°
2026-05-05 22:43 3.75220 11.27510 5071 ft 187 kts 98°
2026-05-05 22:43 3.75033 11.28777 5061 ft 185 kts 98°
2026-05-05 22:44 3.74847 11.30040 5070 ft 183 kts 98°
2026-05-05 22:44 3.74662 11.31309 5097 ft 179 kts 98°
2026-05-05 22:44 3.74481 11.32536 5085 ft 182 kts 98°
2026-05-05 22:44 3.74302 11.33788 5075 ft 182 kts 94°
2026-05-05 22:45 3.74552 11.35011 5070 ft 181 kts 61°
2026-05-05 22:45 3.75434 11.35879 5077 ft 180 kts 28°
2026-05-05 22:45 3.76632 11.36229 5082 ft 180 kts 12°
2026-05-05 22:45 3.77868 11.36467 5082 ft 181 kts 11°
2026-05-05 22:46 3.79111 11.36699 5085 ft 182 kts 11°
2026-05-05 22:46 3.80357 11.36929 5082 ft 182 kts 11°
2026-05-05 22:46 3.81605 11.37157 5078 ft 182 kts 11°
2026-05-05 22:46 3.82854 11.37382 5079 ft 182 kts 11°
2026-05-05 22:47 3.84099 11.37609 5074 ft 182 kts 11°
2026-05-05 22:47 3.85355 11.37839 4962 ft 185 kts 11°
2026-05-05 22:47 3.86640 11.38081 4758 ft 191 kts 11°
2026-05-05 22:47 3.87957 11.38337 4545 ft 194 kts 11°
2026-05-05 22:48 3.89283 11.38609 4291 ft 196 kts 11°
2026-05-05 22:48 3.90628 11.38893 4052 ft 197 kts 11°
2026-05-05 22:48 3.91914 11.39305 3848 ft 193 kts 30°
2026-05-05 22:48 3.92815 11.40269 3647 ft 191 kts 63°
2026-05-05 22:49 3.93079 11.41549 3461 ft 187 kts 92°
2026-05-05 22:49 3.92995 11.42804 3551 ft 174 kts 95°
2026-05-05 22:49 3.92912 11.43968 3684 ft 161 kts 96°
2026-05-05 22:49 3.92828 11.45080 3828 ft 165 kts 96°
2026-05-05 22:50 3.92736 11.46255 4053 ft 173 kts 96°
2026-05-05 22:50 3.92644 11.47469 4284 ft 177 kts 96°
2026-05-05 22:50 3.92537 11.48700 4512 ft 178 kts 96°
2026-05-05 22:50 3.92419 11.49943 4673 ft 183 kts 96°
2026-05-05 22:51 3.92287 11.51261 4628 ft 197 kts 96°
2026-05-05 22:51 3.92124 11.52664 4547 ft 208 kts 103°
2026-05-05 22:51 3.91467 11.53937 4501 ft 212 kts 133°
2026-05-05 22:51 3.90278 11.54861 4373 ft 218 kts 152°
2026-05-05 22:52 3.88899 11.55292 3942 ft 200 kts 176°
2026-05-05 22:52 3.87684 11.55171 3907 ft 146 kts 198°
2026-05-05 22:52 3.86844 11.55008 3879 ft 120 kts 175°
2026-05-05 22:52 3.86015 11.55406 3543 ft 141 kts 147°
2026-05-05 22:53 3.85224 11.56007 3400 ft 145 kts 147°
2026-05-05 22:53 3.84437 11.56614 3328 ft 146 kts 149°
2026-05-05 22:53 3.83474 11.57011 3338 ft 152 kts 172°
2026-05-05 22:53 3.82496 11.57135 3171 ft 135 kts 182°
2026-05-05 22:54 3.81607 11.57062 3076 ft 123 kts 192°
2026-05-05 22:54 3.80768 11.56887 2995 ft 123 kts 197°
2026-05-05 22:54 3.79913 11.56702 2896 ft 128 kts 192°
2026-05-05 22:54 3.79021 11.56543 2823 ft 132 kts 194°
2026-05-05 22:55 3.78111 11.56366 2728 ft 133 kts 192°
2026-05-05 22:55 3.77259 11.56228 2661 ft 117 kts 194°
2026-05-05 22:55 3.76474 11.56086 2597 ft 116 kts 191°
2026-05-05 22:55 3.75684 11.55947 2560 ft 114 kts 194°
2026-05-05 22:56 3.74895 11.55805 2509 ft 117 kts 191°
2026-05-05 22:56 3.74085 11.55658 2372 ft 116 kts 194°
2026-05-05 22:56 3.73332 11.55528 2269 ft 102 kts 193°
2026-05-05 22:56 3.72663 11.55412 2254 ft 93 kts 192°
2026-05-05 22:57 3.72158 11.55318 2251 ft 56 kts 191°
2026-05-05 22:57 3.71865 11.55265 2250 ft 31 kts 191°
2026-05-05 22:57 3.71700 11.55206 2252 ft 21 kts 210°
2026-05-05 22:57 3.71598 11.55134 2253 ft 15 kts 218°
2026-05-05 22:58 3.71567 11.55106 2254 ft 0 kts 221°
2026-05-05 22:58 3.71551 11.55092 2255 ft 10 kts 221°
2026-05-05 22:58 3.71487 11.55016 2256 ft 16 kts 271°
2026-05-05 22:59 3.71554 11.54963 2257 ft 16 kts 358°
2026-05-05 22:59 3.71656 11.54931 2257 ft 15 kts 339°
2026-05-05 22:59 3.71694 11.54877 2257 ft 8 kts 241°
2026-05-05 22:59 3.71683 11.54865 2257 ft 5 kts 199°
2026-05-05 23:00 3.71676 11.54864 2257 ft 0 kts 184°